Weather History for Las Vegas, NV

Change the Weather History Date:

Friday, October 17, 2014

  Actual Average Record
Temperature  
Mean Temperature 74 °F 69 °F  
Max Temperature 85 °F 80 °F 94 °F (1991)
Min Temperature 62 °F 58 °F 38 °F (1938)
Degree Days  
Heating Degree Days 0 1  
Month to date heating degree days 0 7  
Since 1 July heating degree days 0 8  
Cooling Degree Days 9 5  
Month to date cooling degree days 195 134  
Year to date cooling degree days 3840 3511  
Growing Degree Days 23 (Base 50)    
Moisture  
Dew Point 36 °F    
Average Humidity 29    
Maximum Humidity 39    
Minimum Humidity 19    
Precipitation  
Precipitation 0.00 in 0.01 in 0.48 in (2005)
Month to date precipitation 0.00 0.12  
Year to date precipitation 1.51 3.18  
Snow  
Snow 0.00 in 0.00 in 0.00 in ()
Month to date snowfall 0.0 0.0  
Since 1 July snowfall 0.0 0.0  
Since 1 September snowfall 0.0 0.0  
Snow Depth 0.00 in    
Sea Level Pressure  
Sea Level Pressure 29.83 in    
Wind  
Wind Speed 7 mph (South)    
Max Wind Speed 15 mph    
Max Gust Speed 19 mph    
Visibility 10 miles    
Events      
T = Trace of Precipitation, MM = Missing Value Source: NWS Daily Summary

Daily Weather History Graph

Daily Weather History Graph

Search for Another Location

Airport:

Trip Planner

Search our weather history database for the weather conditions in past years. The results will help you decide how hot, cold, wet, or windy it might be!

Date:

Astronomy

Oct. 17, 2014 Rise Set
Actual Time 6:49 AM PDT 6:02 PM PDT
Civil Twilight 6:23 AM PDT 6:27 PM PDT
Nautical Twilight 5:53 AM PDT 6:57 PM PDT
Astronomical Twilight 5:23 AM PDT 7:27 PM PDT
Moon 1:07 AM PDT (10/17) 2:42 PM PDT (10/17)
Length of Visible Light 12h 04m
Length of Day
11h 12m
Waning Crescent, 32% of the Moon is Illuminated
Oct 17
Waning Crescent
Oct 23
New
Oct 30
First Quarter
Nov 6
Full
Nov 14
Last Quarter

Hourly Weather History & Observations

Time (PDT) Temp. Dew Point Humidity Pressure Visibility Wind Dir Wind Speed Gust Speed Precip Events Conditions
12:56 AM 68.0 °F 30.9 °F 25% 29.82 in 10.0 mi SW 9.2 mph - N/A   Clear
1:45 AM - - N/A% - - SSW 8.1 mph - N/A   Mostly Cloudy
1:56 AM 66.9 °F 30.0 °F 25% 29.83 in 10.0 mi SSW 9.2 mph - N/A   Clear
2:56 AM 66.9 °F 33.1 °F 28% 29.82 in 10.0 mi SSW 8.1 mph - N/A   Clear
3:56 AM 64.0 °F 32.0 °F 30% 29.81 in 10.0 mi SSW 8.1 mph - N/A   Clear
4:56 AM 63.0 °F 34.0 °F 34% 29.83 in 10.0 mi SSW 6.9 mph - N/A   Clear
5:56 AM 63.0 °F 37.0 °F 38% 29.84 in 10.0 mi SW 6.9 mph - N/A   Partly Cloudy
6:56 AM 62.1 °F 34.0 °F 35% 29.86 in 10.0 mi SSW 9.2 mph - N/A   Scattered Clouds
7:56 AM 64.0 °F 35.1 °F 34% 29.88 in 10.0 mi SSW 6.9 mph - N/A   Mostly Cloudy
8:56 AM 70.0 °F 37.9 °F 31% 29.89 in 10.0 mi Calm Calm - N/A   Mostly Cloudy
9:56 AM 73.0 °F 37.0 °F 27% 29.89 in 10.0 mi SSW 4.6 mph - N/A   Scattered Clouds
10:56 AM 77.0 °F 37.0 °F 24% 29.88 in 10.0 mi SSW 3.5 mph - N/A   Scattered Clouds
11:56 AM 78.1 °F 37.0 °F 23% 29.87 in 10.0 mi SSE 4.6 mph - N/A   Scattered Clouds
12:56 PM 80.1 °F 37.0 °F 21% 29.84 in 10.0 mi Variable 5.8 mph - N/A   Scattered Clouds
1:56 PM 82.9 °F 37.9 °F 20% 29.81 in 10.0 mi Variable 6.9 mph - N/A   Scattered Clouds
2:56 PM 84.0 °F 37.0 °F 19% 29.79 in 10.0 mi ESE 11.5 mph 17.3 mph N/A   Scattered Clouds
3:56 PM 84.0 °F 37.0 °F 19% 29.78 in 10.0 mi SE 10.4 mph - N/A   Scattered Clouds
4:56 PM 82.9 °F 39.0 °F 21% 29.78 in 10.0 mi ESE 11.5 mph - N/A   Mostly Cloudy
5:56 PM 81.0 °F 37.9 °F 21% 29.79 in 10.0 mi SE 9.2 mph - N/A   Mostly Cloudy
6:56 PM 80.1 °F 37.0 °F 21% 29.81 in 10.0 mi ENE 6.9 mph - N/A   Mostly Cloudy
7:56 PM 78.1 °F 37.0 °F 23% 29.82 in 10.0 mi ESE 3.5 mph - N/A   Mostly Cloudy
8:56 PM 77.0 °F 37.0 °F 24% 29.81 in 10.0 mi SSE 4.6 mph - N/A   Mostly Cloudy
9:56 PM 75.0 °F 37.9 °F 26% 29.82 in 10.0 mi SSW 6.9 mph - N/A   Mostly Cloudy
10:56 PM 73.0 °F 39.0 °F 29% 29.82 in 10.0 mi SSW 8.1 mph - N/A   Mostly Cloudy
11:56 PM 73.0 °F 39.0 °F 29% 29.82 in 10.0 mi SW 8.1 mph - N/A   Mostly Cloudy